Location: *
(41.7492°S, 135.4150°W)
Time: 07:08:03
(UTC+00:00)

AO-27 - Pass Details

Date: 01 July 2022
Orbit: 786 x 796 km, 98.9° (Epoch: 12 August)

Event Time Altitude Azimuth Distance (km) Brightness Sun altitude
Rises 14:47:16 0° 55° (NE) 3,303 12.2 -18.4°
Reaches altitude 10° 14:50:05 10° 70° (ENE) 2,381 11.4 -17.9°
Maximum altitude 14:53:57 21° 118° (ESE) 1,732 10.0 -17.2°
Drops below altitude 10° 14:57:51 10° 165° (SSE) 2,398 10.1 -16.5°
Sets 15:00:42 0° 180° (S) 3,334 10.7 -16.0°
